Regional Weather Roundup
Issued by NWS

Home | Current Version | Previous Version | Text Only | Print | Product List | Glossary Off
Versions: 1 2 3 4 5 6 7 8 9 10 11 12 13 14 15 16 17 18 19 20 21 22 23 24 25 26 27 28 29 30 31 32 33 34 35 36 37 38 39 40 41 42 43 44 45 46 47 48 49 50

000
ASUS43 KMPX 101901
RWRMN
WEATHER ROUNDUP FOR MINNESOTA
NATIONAL WEATHER SERVICE TWIN CITIES/CHANHASSEN MN
100 PM CST SAT DEC 10 2016


NOTE: "FAIR" INDICATES FEW OR NO CLOUDS BELOW 12,000 FEET WITH NO
SIGNIFICANT WEATHER AND/OR OBSTRUCTIONS TO VISIBILITY. N/A MEANS
CURRENT SKY AND/OR WEATHER CONDITIONS ARE NOT AVAILABLE.

MNZ060>063-068>070-102000-
   Twin Cities Metro

CITY           SKY/WX    TMP DP  RH WIND       PRES   REMARKS
TWIN CITIES    PTSUNNY   11   0  61 SE5       30.38F WCI   3
ST PAUL        MOSUNNY   12   2  64 CALM      30.40F
CRYSTAL        CLOUDY    10  -1  61 SE3       30.37F
BLAINE         PTSUNNY   12   1  62 CALM      30.37F
LAKEVILLE      CLOUDY     9   3  78 CALM      30.36F
EDEN PRAIRIE   PTSUNNY   11   2  67 SE3       30.36F
SOUTH ST PAUL  MOSUNNY   12   3  69 S3        30.38F
LAKE ELMO      FAIR      12   3  67 CALM      30.38F
$$
MNZ001>005-007-008-013>017-022>024-027-028-102000-
   Northwest Minnesota

CITY           SKY/WX    TMP DP  RH WIND       PRES   REMARKS
BEMIDJI        MOSUNNY   -1  -6  80 SE3       30.31F
HALLOCK        SUNNY     -4  -9  77 S5        30.40S WCI -15
ROSEAU         SUNNY     -2  -9  71 CALM      30.37F
WARROAD        SUNNY     -2  -8  78 CALM      30.36F
THIEF RVR FALL MOSUNNY    3  -6  66 CALM      30.37F
CROOKSTON      SUNNY     -2  -8  78 SE3       30.40F
FOSSTON        SUNNY      1  -8  66 N3        30.34F
DETROIT LAKES  CLOUDY     0  -4  85 SE3       30.33F
MOORHEAD       PTSUNNY    0  -9  65 CALM      30.38F
PARK RAPIDS    CLOUDY     0  -7  72 S7        30.31F WCI -13
$$
MNZ006-009>011-018-025>026-102000-
   North Central Minnesota

CITY           SKY/WX    TMP DP  RH WIND       PRES   REMARKS
BAUDETTE       MOSUNNY    0  -4  83 CALM      30.34F
FLAG ISLAND    SUNNY      0  -4  85 CALM      30.35F
INTL FALLS     MOSUNNY    3  -3  76 CALM      30.34F
WASKISH        PTSUNNY    3  -2  78 CALM      30.34F
BIG FORK       SUNNY      3  -8  60 CALM      30.33F
LONGVILLE      CLOUDY     1  -6  71 E3        30.33F
GRAND RAPIDS   CLOUDY     6  -5  60 S3        30.34F
CRANE LAKE     PTSUNNY    1  -4  78 CALM      30.36F
ORR            SUNNY      1  -8  66 CALM      30.30F
COOK           SUNNY      3  -6  66 CALM      30.33F
$$
MNZ012-019>021-037-102000-
   Northeast Minnesota

CITY           SKY/WX    TMP DP  RH WIND       PRES   REMARKS
DULUTH         PTSUNNY    3  -4  72 CALM      30.32F
ELY            PTSUNNY    3  -6  66 SW5       30.31F WCI  -6
HIBBING        FLURRIES   2  -7  66 NW3       30.33S
EVELETH        SUNNY      2  -7  65 CALM      30.34S
DULUTH HARBOR  CLOUDY     9  -2  61 CALM      30.41F
TWO HARBORS    SUNNY      9  -2  61 W3        30.33F
SILVER BAY     SUNNY      9  -6  52 CALM      30.32F
GRAND MARAIS     N/A     13  -2  51 VRB3      30.37F
G MARAIS ARPRT MOSUNNY    5  -8  56 W5        30.25F WCI  -4
$$
MNZ029>031-032-039>041-046>048-054>057-064-102000-
   West Central Minnesota

CITY           SKY/WX    TMP DP  RH WIND       PRES   REMARKS
FERGUS FALLS   CLOUDY    -2  -8  78 SE3       30.40F
WHEATON        CLOUDY     1  -2  85 E5        30.37F HAZE    WCI  -8
MORRIS         CLOUDY     1  -4  78 CALM      30.33F
ALEXANDRIA     CLOUDY     1  -4  79 SE5       30.32F WCI  -9
ELBOW LAKE     FLURRIES  -3  -6  86 CALM      30.35F
WADENA         CLOUDY     0  -8  71 CALM      30.32F
GLENWOOD       CLOUDY     1   0  92 SE3       30.32F
APPLETON       LGT SNOW   3  -2  78 CALM      30.35F
BENSON         LGT SNOW   3  -2  78 SW3       30.35F
ORTONVILLE     LGT SNOW   1  -6  71 CALM      30.33F VSB 3/4
MADISON        LGT SNOW   7   1  78 E5        30.34F VSB 1   WCI  -2
WILLMAR        LGT SNOW   9   3  78 CALM      30.35F
$$
MNZ033>034-036-042>043-049>051-058-059-102000-
   Central Minnesota

CITY           SKY/WX    TMP DP  RH WIND       PRES   REMARKS
ST CLOUD       PTSUNNY    7   0  73 SW6       30.36F WCI  -3
PAYNESVILLE    CLOUDY     7   1  76 CALM      30.35F
AITKIN         CLOUDY     9  -2  61 NE5       30.33S WCI   0
PINE RIVER     CLOUDY     1  -2  85 CALM      30.34F
BRAINERD       CLOUDY     6  -1  73 S6        30.33F WCI  -4
LONG PRAIRIE   PTSUNNY    3  -4  72 CALM      30.33F
LITTLE FALLS   SUNNY      5  -4  66 CALM      30.35F
LITCHFIELD     CLOUDY     9   1  72 CALM      30.36F
BUFFALO        CLOUDY     9   2  71 S3        30.38F
MAPLE LAKE     PTSUNNY   10   4  75 CALM      30.37F
HUTCHINSON     LGT SNOW  10   3  75 SE5       30.36F WCI   1
$$
MNZ037-044-045-052-053-102000-
   East Central Minnesota

CITY           SKY/WX    TMP DP  RH WIND       PRES   REMARKS
PRINCETON      MOSUNNY   10   0  61 CALM      30.36F
MORA           CLOUDY    10   1  67 S5        30.37F WCI   2
CAMBRIDGE      MOSUNNY   10   0  61 CALM      30.35F
RUSH CITY      CLOUDY    10   1  67 S6        30.38S WCI   1
MOOSE LAKE     CLOUDY     9  -2  61 CALM      30.33F
HINCKLEY       CLOUDY    12   3  67 SW7       30.36F WCI   2
CLOQUET        CLOUDY     5  -6  61 W3        30.33F
MCGREGOR       CLOUDY     7   0  72 CALM      30.34F
$$
MNZ071>073-080-081-089-090-097-098-102000-
   Southwest Minnesota

CITY           SKY/WX    TMP DP  RH WIND       PRES   REMARKS
MONTEVIDEO     LGT SNOW   7   1  78 CALM      30.37F
GRANITE FALLS  LGT SNOW   8   2  79 E3        30.37F
CANBY          LGT SNOW   7   2  82 CALM      30.32F VSB 1
MARSHALL       LGT SNOW   6   2  83 E9        30.31F FOG     WCI  -8
REDWOOD FALLS  LGT SNOW   7   1  76 SE5       30.35F VSB 1   WCI  -2
OLIVIA         LGT SNOW  10   5  79 SE5       30.35F VSB 1   WCI   2
PIPESTONE      LGT SNOW  10   7  85 SE10      30.21F WCI  -3
WINDOM         LGT SNOW   9   5  85 MISG      30.30F VSB 1
WORTHINGTON    FLURRIES  10   7  87 E10       30.26F WCI  -4
JACKSON        LGT SNOW  10   5  79 E8        30.30F WCI  -1
TRACY          LGT SNOW   9   5  82 E8        30.30F VSB 1   WCI  -3
SLAYTON        LGT SNOW   8   5  88 E9        30.28F VSB 3/4 WCI  -6
$$
MNZ065>067-074>077-082>085-091>093-102000-
   South Central Minnesota

CITY           SKY/WX    TMP DP  RH WIND       PRES   REMARKS
MANKATO        LGT SNOW   9   5  84 SE6       30.37S VSB 3/4 WCI  -1
NEW ULM        LGT SNOW   9   3  78 E3        30.36F VSB 3/4
ST JAMES       LGT SNOW   9   5  85 SE3       30.36F VSB 3/4
FAIRMONT       LGT SNOW  10   6  84 E6        30.34F VSB 1   WCI   0
GLENCOE        LGT SNOW  10   6  81 SE3       30.36F
OWATONNA       LGT SNOW  10   5  79 E3        30.34F
WASECA         LGT SNOW  12   9  85 SE5       30.37R VSB 3/4 WCI   4
ALBERT LEA     LGT SNOW  14  10  85 SE6       30.33S VSB 3/4 WCI   5
$$
MNZ078>079-086>088-094>096-102000-
   Southeast Minnesota

CITY           SKY/WX    TMP DP  RH WIND       PRES   REMARKS
ROCHESTER      LGT SNOW   8   4  83 SE7       30.32F VSB 1   WCI  -3
RED WING       MOSUNNY   12   3  67 E3        30.37F
STANTON        CLOUDY    12   3  69 E5        30.36F WCI   4
DODGE CENTER   LGT SNOW   9   3  78 SE6       30.32F WCI  -1
WINONA         CLOUDY    14   5  67 CALM      30.40F
AUSTIN         LGT SNOW  10   7  85 SE5       30.33F WCI   2
PRESTON        LGT SNOW  10   5  80 SE6       30.33F WCI   0
$$
ABBREVIATIONS USED IN REMARKS
   TC - TEMPERATURES IN CELSIUS
  WCI - WIND CHILL INDEX
   HX - HEAT INDEX
  VSB - VISIBILITY
$$



USA.gov is the U.S. government's official web portal to all federal, state and local government web resources and services.